TimeMST,TemperatureF,Dew PointF,Humidity,Sea Level PressureIn,VisibilityMPH,Wind Direction,Wind SpeedMPH,Gust SpeedMPH,PrecipitationIn,Events,Conditions,WindDirDegrees,DateUTC
12:15 AM,66.2,32.0,28,29.96,10.0,Calm,Calm,-,N/A,,Clear,0,2013-05-10 07:15:00
12:35 AM,68.0,32.0,26,29.96,10.0,Calm,Calm,-,N/A,,Clear,0,2013-05-10 07:35:00
12:55 AM,68.0,32.0,26,29.95,10.0,Calm,Calm,-,N/A,,Clear,0,2013-05-10 07:55:00
1:15 AM,62.6,33.8,34,29.95,10.0,Calm,Calm,-,N/A,,Clear,0,2013-05-10 08:15:00
1:35 AM,62.6,35.6,37,29.95,10.0,Calm,Calm,-,N/A,,Clear,0,2013-05-10 08:35:00
1:55 AM,64.4,33.8,32,29.95,10.0,Calm,Calm,-,N/A,,Clear,0,2013-05-10 08:55:00
2:15 AM,64.4,33.8,32,29.95,10.0,Calm,Calm,-,N/A,,Clear,0,2013-05-10 09:15:00
2:35 AM,68.0,33.8,28,29.94,10.0,Calm,Calm,-,N/A,,Clear,0,2013-05-10 09:35:00
2:55 AM,64.4,33.8,32,29.94,10.0,SW,5.8,-,N/A,,Clear,230,2013-05-10 09:55:00
3:15 AM,62.6,33.8,34,29.94,10.0,Calm,Calm,-,N/A,,Clear,0,2013-05-10 10:15:00
3:35 AM,60.8,32.0,34,29.94,10.0,Calm,Calm,-,N/A,,Clear,0,2013-05-10 10:35:00
3:55 AM,60.8,32.0,34,29.95,10.0,ESE,5.8,-,N/A,,Clear,110,2013-05-10 10:55:00
4:15 AM,60.8,32.0,34,29.95,10.0,ESE,3.5,-,N/A,,Clear,110,2013-05-10 11:15:00
4:35 AM,60.8,32.0,34,29.95,10.0,ESE,5.8,-,N/A,,Clear,120,2013-05-10 11:35:00
4:47 AM,59.0,30.2,34,29.96,20.0,ESE,4.6,-,N/A,,Partly Cloudy,120,2013-05-10 11:47:00
4:55 AM,57.2,33.8,41,29.95,10.0,SSE,4.6,-,N/A,,Clear,150,2013-05-10 11:55:00
5:15 AM,57.2,33.8,41,29.96,10.0,East,3.5,-,N/A,,Clear,100,2013-05-10 12:15:00
5:47 AM,59.0,30.2,34,29.97,20.0,East,5.8,-,N/A,,Partly Cloudy,90,2013-05-10 12:47:00
6:47 AM,62.6,37.4,39,29.99,35.0,SSE,6.9,-,N/A,,Partly Cloudy,150,2013-05-10 13:47:00
7:47 AM,68.0,37.4,33,30.00,35.0,ESE,5.8,-,N/A,,Partly Cloudy,120,2013-05-10 14:47:00
8:47 AM,73.4,39.2,29,30.01,35.0,SE,5.8,-,N/A,,Partly Cloudy,130,2013-05-10 15:47:00
9:50 AM,78.8,39.2,24,30.02,35.0,Variable,4.6,-,N/A,,Partly Cloudy,0,2013-05-10 16:50:00
11:47 AM,82.4,33.8,17,30.00,35.0,Calm,Calm,-,N/A,,Partly Cloudy,0,2013-05-10 18:47:00
12:47 PM,84.2,32.0,15,29.98,35.0,NW,5.8,-,N/A,,Partly Cloudy,310,2013-05-10 19:47:00
1:47 PM,86.0,28.4,12,29.97,35.0,West,4.6,-,N/A,,Scattered Clouds,280,2013-05-10 20:47:00
2:50 PM,87.8,24.8,10,29.94,20.0,West,3.5,-,N/A,,Scattered Clouds,280,2013-05-10 21:50:00
3:47 PM,87.8,26.6,11,29.92,35.0,WSW,6.9,-,N/A,,Scattered Clouds,250,2013-05-10 22:47:00
4:47 PM,87.8,24.8,10,29.91,35.0,Calm,Calm,-,N/A,,Scattered Clouds,0,2013-05-10 23:47:00
5:50 PM,89.6,26.6,10,29.92,20.0,SW,6.9,-,N/A,,Scattered Clouds,230,2013-05-11 00:50:00
6:51 PM,87.8,24.8,10,29.95,10.0,North,4.6,-,N/A,,Mostly Cloudy,350,2013-05-11 01:51:00
6:59 PM,86.0,28.4,12,29.95,6.0,ENE,20.7,32.2,N/A,,Widespread Dust,70,2013-05-11 01:59:00
7:31 PM,82.4,32.0,16,29.99,6.0,South,23.0,33.4,N/A,,Widespread Dust,180,2013-05-11 02:31:00
7:47 PM,84.2,26.6,12,29.95,10.0,East,8.1,-,N/A,,Mostly Cloudy,100,2013-05-11 02:47:00
7:55 PM,84.2,28.4,13,29.96,10.0,Calm,Calm,-,N/A,,Scattered Clouds,0,2013-05-11 02:55:00
8:15 PM,82.4,28.4,14,29.97,10.0,NE,5.8,-,N/A,,Clear,40,2013-05-11 03:15:00
8:35 PM,80.6,28.4,15,29.98,10.0,NNE,5.8,-,N/A,,Clear,30,2013-05-11 03:35:00
8:54 PM,80.6,28.4,15,29.99,10.0,Variable,4.6,-,N/A,,Mostly Cloudy,0,2013-05-11 03:54:00
8:55 PM,80.6,28.4,15,29.99,10.0,North,6.9,-,N/A,,Clear,350,2013-05-11 03:55:00
9:15 PM,78.8,30.2,17,30.00,10.0,NE,5.8,-,N/A,,Clear,40,2013-05-11 04:15:00
9:35 PM,78.8,30.2,17,30.02,10.0,NNE,6.9,-,N/A,,Clear,20,2013-05-11 04:35:00
9:52 PM,82.4,30.2,15,30.02,10.0,NNE,11.5,-,N/A,,Scattered Clouds,30,2013-05-11 04:52:00
9:55 PM,82.4,32.0,16,30.03,10.0,NE,18.4,21.9,N/A,,Clear,50,2013-05-11 04:55:00
10:15 PM,80.6,33.8,18,30.04,10.0,ENE,12.7,23.0,N/A,,Clear,70,2013-05-11 05:15:00
10:35 PM,80.6,33.8,18,30.04,10.0,ENE,15.0,18.4,N/A,,Clear,70,2013-05-11 05:35:00
10:47 PM,80.6,35.6,20,30.04,10.0,NE,17.3,23.0,N/A,,Scattered Clouds,50,2013-05-11 05:47:00
10:55 PM,80.6,33.8,18,30.04,10.0,East,11.5,-,N/A,,Clear,80,2013-05-11 05:55:00
11:15 PM,78.8,33.8,20,30.04,10.0,East,6.9,-,N/A,,Clear,80,2013-05-11 06:15:00
11:35 PM,78.8,33.8,20,30.03,10.0,East,9.2,-,N/A,,Clear,100,2013-05-11 06:35:00
11:55 PM,78.8,33.8,20,30.03,10.0,ENE,5.8,-,N/A,,Clear,70,2013-05-11 06:55:00